Flag for Germany Weather past 2 weeks in Buxtehude, Lower Saxony, Germany

Now
59 °F

Sprinkles. Clear.


Feels Like: 59 °F
Forecast: 52 / 65 °F
Wind: 5 mph from Southwest

Location: Hamburg-Finkenwerder

Current Time: Aug 21, 2014 at 9:06:38 PM

Latest Report: Aug 21, 2014 at 8:20 PM


Visibility: N/A

Pressure: 29.92 "Hg

Humidity: 68%

Dew point: 48 °F

Location of BuxtehudeLocation

Historic Weather in Buxtehude — Graph

°F

Buxtehude temperature yesterday

Maximum temperature yesterday: 61 °F (at 11:20 AM)
Minimum temperature yesterday: 50 °F (at 6:20 AM)
Average temperature yesterday: 56 °F

Past Weeks' High & Low Weather Summary

 TemperatureHumidityPressure
High79 °F (Aug 8, 4:20 PM)100% (Aug 8, 5:50 AM)30.01 "Hg (Aug 8, 5:50 AM)
Low46 °F (Aug 21, 5:50 AM)38% (Aug 13, 3:20 PM)29.47 "Hg (Aug 18, 10:20 AM)
Average62 °F74%29.79 "Hg
* Reported Aug 6 7:20 PM — Aug 21 7:50 PM, Buxtehude, Weather by CustomWeather, © 2014

Note: Actual official high and low records may vary slightly from our data, if they occured in-between our weather recording intervals... More about our weather records

Advertising

Buxtehude weather history for previous 24 hours

 ConditionsComfort  
Time TempWeatherWind HumidityBarometerVisibility
7:50 PM
Aug 21
61 °FPartly sunny.7 mph59%29.92 "HgN/A
7:20 PM63 °FSunny.6 mph56%29.92 "Hg10 mi
6:50 PM63 °FSunny.8 mph56%29.92 "Hg10 mi
6:20 PM64 °FSunny.13 mph49%29.92 "Hg10 mi
5:50 PM64 °FPassing clouds.12 mph49%29.92 "HgN/A
5:20 PM63 °FSunny.14 mph52%29.92 "Hg10 mi
4:50 PM64 °FSunny.14 mph49%29.95 "Hg10 mi
4:20 PM64 °FSunny.15 mph49%29.95 "Hg10 mi
3:50 PM64 °FScattered clouds.15 mph49%29.95 "HgN/A
3:20 PM63 °FScattered clouds.15 mph52%29.95 "HgN/A
2:50 PM63 °FScattered clouds.14 mph56%29.95 "HgN/A
2:20 PM63 °FBroken clouds.8 mph56%29.95 "HgN/A
1:50 PM61 °FScattered clouds.12 mph59%29.95 "HgN/A
1:20 PM61 °FScattered clouds.14 mph59%29.95 "HgN/A
12:50 PM61 °FScattered clouds.10 mph63%29.95 "HgN/A
12:20 PM61 °FScattered clouds.13 mph63%29.95 "HgN/A
11:50 AM61 °FScattered clouds.15 mph63%29.95 "HgN/A
11:20 AM59 °FScattered clouds.15 mph68%29.95 "HgN/A
10:50 AM59 °FScattered clouds.14 mph68%29.95 "HgN/A
10:20 AM57 °FPassing clouds.14 mph72%29.95 "HgN/A
9:50 AM55 °FPassing clouds.10 mph82%29.95 "HgN/A
9:20 AM54 °FSunny.9 mph88%29.95 "Hg10 mi
8:50 AM52 °FSunny.9 mph88%29.95 "Hg10 mi
8:20 AM50 °FSunny.7 mph94%29.95 "Hg10 mi
7:50 AM48 °FPassing clouds.5 mph100%29.95 "HgN/A
7:20 AM46 °FSunny.3 mph100%29.95 "Hg10 mi
6:50 AM46 °FPassing clouds.2 mph93%29.95 "HgN/A
6:20 AM46 °FPassing clouds.1 mph93%29.95 "HgN/A
5:50 AM46 °FPassing clouds.2 mph93%29.95 "HgN/A
Weather by CustomWeather, © 2014

See weather overviewHow to use our weather pages